TimeEDT,TemperatureF,Dew PointF,Humidity,Sea Level PressureIn,VisibilityMPH,Wind Direction,Wind SpeedMPH,Gust SpeedMPH,PrecipitationIn,Events,Conditions,WindDirDegrees,DateUTC
12:15 AM,46.4,42.8,87,30.07,10.0,SW,3.5,-,0.01,,Overcast,230,2012-10-08 04:15:00
12:35 AM,46.4,42.8,87,30.07,10.0,Calm,Calm,-,0.01,,Overcast,0,2012-10-08 04:35:00
12:55 AM,44.6,42.8,93,30.08,10.0,Calm,Calm,-,0.02,,Overcast,0,2012-10-08 04:55:00
1:15 AM,44.6,42.8,93,30.08,10.0,Calm,Calm,-,N/A,,Mostly Cloudy,0,2012-10-08 05:15:00
1:35 AM,44.6,42.8,93,30.08,10.0,Calm,Calm,-,N/A,,Mostly Cloudy,0,2012-10-08 05:35:00
1:55 AM,44.6,42.8,93,30.09,10.0,Calm,Calm,-,N/A,,Overcast,0,2012-10-08 05:55:00
2:15 AM,44.6,42.8,93,30.08,9.0,Calm,Calm,-,N/A,,Mostly Cloudy,0,2012-10-08 06:15:00
2:55 AM,42.8,41.0,93,30.07,0.2,Calm,Calm,-,N/A,,Overcast,0,2012-10-08 06:55:00
3:15 AM,42.8,41.0,93,30.08,0.2,South,3.5,-,N/A,,Overcast,170,2012-10-08 07:15:00
3:35 AM,42.8,41.0,93,30.08,0.5,Calm,Calm,-,N/A,,Overcast,0,2012-10-08 07:35:00
3:55 AM,42.8,41.0,93,30.09,2.0,SSW,3.5,-,N/A,,Overcast,210,2012-10-08 07:55:00
4:15 AM,42.8,41.0,93,30.09,1.8,Calm,Calm,-,N/A,,Overcast,0,2012-10-08 08:15:00
4:35 AM,42.8,41.0,93,30.10,10.0,SSW,4.6,-,N/A,,Overcast,210,2012-10-08 08:35:00
4:55 AM,42.8,41.0,93,30.11,10.0,South,4.6,-,N/A,,Overcast,180,2012-10-08 08:55:00
5:15 AM,42.8,41.0,93,30.12,9.0,South,3.5,-,N/A,,Overcast,180,2012-10-08 09:15:00
5:55 AM,42.8,41.0,93,30.11,10.0,Calm,Calm,-,N/A,,Overcast,0,2012-10-08 09:55:00
6:15 AM,42.8,39.2,87,30.11,-9999.0,Calm,Calm,-,N/A,,Unknown,0,2012-10-08 10:15:00
6:35 AM,41.0,39.2,93,30.12,8.0,Calm,Calm,-,N/A,,Overcast,0,2012-10-08 10:35:00
6:55 AM,41.0,39.2,93,30.13,10.0,Calm,Calm,-,N/A,,Mostly Cloudy,0,2012-10-08 10:55:00
7:15 AM,42.8,39.2,87,30.15,1.5,Calm,Calm,-,N/A,,Overcast,0,2012-10-08 11:15:00
7:35 AM,42.8,39.2,87,30.16,0.5,Calm,Calm,-,N/A,,Overcast,0,2012-10-08 11:35:00
8:15 AM,42.8,41.0,93,30.19,10.0,Calm,Calm,-,N/A,,Overcast,0,2012-10-08 12:15:00
8:35 AM,42.8,39.2,87,30.20,10.0,Calm,Calm,-,N/A,,Overcast,0,2012-10-08 12:35:00
8:55 AM,44.6,41.0,87,30.20,10.0,Calm,Calm,-,N/A,,Overcast,0,2012-10-08 12:55:00
9:15 AM,44.6,42.8,93,30.20,10.0,Calm,Calm,-,N/A,,Mostly Cloudy,0,2012-10-08 13:15:00
9:35 AM,46.4,42.8,87,30.20,10.0,Calm,Calm,-,N/A,,Mostly Cloudy,0,2012-10-08 13:35:00
9:55 AM,46.4,41.0,81,30.21,10.0,Calm,Calm,-,N/A,,Partly Cloudy,0,2012-10-08 13:55:00
10:15 AM,46.4,41.0,81,30.21,10.0,Calm,Calm,-,N/A,,Partly Cloudy,0,2012-10-08 14:15:00
10:35 AM,48.2,42.8,82,30.22,10.0,Calm,Calm,-,N/A,,Partly Cloudy,0,2012-10-08 14:35:00
10:55 AM,48.2,42.8,82,30.23,10.0,WNW,3.5,-,N/A,,Mostly Cloudy,290,2012-10-08 14:55:00
11:15 AM,48.2,39.2,71,30.24,10.0,WNW,3.5,-,N/A,,Overcast,300,2012-10-08 15:15:00
11:35 AM,50.0,37.4,62,30.24,10.0,WNW,4.6,-,N/A,,Overcast,290,2012-10-08 15:35:00
11:55 AM,50.0,37.4,62,30.24,10.0,Calm,Calm,-,N/A,,Overcast,0,2012-10-08 15:55:00
12:15 PM,51.8,37.4,58,30.24,10.0,Calm,Calm,-,N/A,,Overcast,0,2012-10-08 16:15:00
12:35 PM,51.8,37.4,58,30.24,10.0,Calm,Calm,-,N/A,,Mostly Cloudy,0,2012-10-08 16:35:00
12:55 PM,53.6,37.4,54,30.23,10.0,Calm,Calm,-,N/A,,Scattered Clouds,0,2012-10-08 16:55:00
1:15 PM,51.8,37.4,58,30.22,10.0,NNE,4.6,-,N/A,,Overcast,30,2012-10-08 17:15:00
1:35 PM,51.8,37.4,58,30.22,10.0,Calm,Calm,-,N/A,,Overcast,0,2012-10-08 17:35:00
1:55 PM,53.6,37.4,54,30.22,10.0,Calm,Calm,-,N/A,,Overcast,0,2012-10-08 17:55:00
2:15 PM,53.6,37.4,54,30.22,10.0,Calm,Calm,-,N/A,,Overcast,0,2012-10-08 18:15:00
2:35 PM,53.6,37.4,54,30.23,10.0,Calm,Calm,-,N/A,,Overcast,0,2012-10-08 18:35:00
2:55 PM,53.6,37.4,54,30.23,10.0,ENE,3.5,-,N/A,,Mostly Cloudy,60,2012-10-08 18:55:00
3:15 PM,53.6,37.4,54,30.24,10.0,Calm,Calm,-,N/A,,Clear,0,2012-10-08 19:15:00
3:35 PM,53.6,37.4,54,30.23,10.0,SSW,3.5,-,N/A,,Partly Cloudy,200,2012-10-08 19:35:00
3:55 PM,53.6,37.4,54,30.23,10.0,Calm,Calm,-,N/A,,Partly Cloudy,0,2012-10-08 19:55:00
4:15 PM,53.6,37.4,54,30.23,10.0,Calm,Calm,-,N/A,,Mostly Cloudy,0,2012-10-08 20:15:00
4:35 PM,53.6,37.4,54,30.23,10.0,Calm,Calm,-,N/A,,Overcast,0,2012-10-08 20:35:00
4:55 PM,53.6,37.4,54,30.23,10.0,Calm,Calm,-,N/A,,Mostly Cloudy,0,2012-10-08 20:55:00
5:15 PM,53.6,37.4,54,30.24,10.0,Calm,Calm,-,N/A,,Mostly Cloudy,0,2012-10-08 21:15:00
5:35 PM,53.6,39.2,58,30.25,10.0,Calm,Calm,-,N/A,,Overcast,0,2012-10-08 21:35:00
5:55 PM,51.8,42.8,71,30.24,10.0,Calm,Calm,-,N/A,,Overcast,0,2012-10-08 21:55:00
6:15 PM,50.0,42.8,76,30.25,10.0,Calm,Calm,-,N/A,,Mostly Cloudy,0,2012-10-08 22:15:00
6:35 PM,48.2,42.8,82,30.26,10.0,Calm,Calm,-,N/A,,Partly Cloudy,0,2012-10-08 22:35:00
6:55 PM,48.2,42.8,82,30.27,10.0,Calm,Calm,-,N/A,,Clear,0,2012-10-08 22:55:00
7:15 PM,46.4,42.8,87,30.28,10.0,Calm,Calm,-,N/A,,Clear,0,2012-10-08 23:15:00
7:35 PM,46.4,42.8,87,30.28,10.0,South,3.5,-,N/A,,Clear,170,2012-10-08 23:35:00
7:55 PM,46.4,42.8,87,30.28,10.0,Calm,Calm,-,N/A,,Clear,0,2012-10-08 23:55:00
8:15 PM,44.6,42.8,93,30.27,10.0,Calm,Calm,-,N/A,,Clear,0,2012-10-09 00:15:00
8:55 PM,44.6,41.0,87,30.28,10.0,Calm,Calm,-,N/A,,Clear,0,2012-10-09 00:55:00
9:35 PM,42.8,39.2,87,30.29,10.0,Calm,Calm,-,N/A,,Clear,0,2012-10-09 01:35:00
9:55 PM,42.8,39.2,87,30.29,10.0,Calm,Calm,-,N/A,,Clear,0,2012-10-09 01:55:00
10:15 PM,42.8,39.2,87,30.30,10.0,Calm,Calm,-,N/A,,Clear,0,2012-10-09 02:15:00
10:35 PM,42.8,39.2,87,30.29,10.0,Calm,Calm,-,N/A,,Clear,0,2012-10-09 02:35:00
10:55 PM,41.0,39.2,93,30.30,7.0,Calm,Calm,-,N/A,,Clear,0,2012-10-09 02:55:00
11:15 PM,41.0,39.2,93,30.31,9.0,Calm,Calm,-,N/A,,Clear,0,2012-10-09 03:15:00
11:55 PM,39.2,37.4,93,30.30,10.0,Calm,Calm,-,N/A,,Clear,0,2012-10-09 03:55:00